Location: Mountain Grove
(34.0887°N, 86.6172°W)
Time: 00:48:33
(UTC+00:00)

Cosmos 2082 Rocket - Pass Details

Date: 14 July 2020
Orbit: 834 x 853 km, 71.0° (Epoch: 12 August)

Event Time Altitude Azimuth Distance (km) Brightness Sun altitude
Exits shadow 07:28:19 49° 98° (E) 1,085 2.7 -29.8°
Drops below altitude 10° 07:33:34 10° 33° (NNE) 2,484 5.6 -29.3°
Sets 07:36:05 0° 28° (NNE) 3,422 6.6 -29.1°
